Location: Calvatone
(45.1167°N, 10.4333°E)
Time: 20:06:15
(UTC+00:00)

Daily predictions for brighter satellites

Satellite Brightness Start Highest point End
(mag) Time Altitude Azimuth Time Altitude Azimuth Time Altitude Azimuth
Cosmos 1992 Rocket 4.0 16:42:34 10° NNW 16:47:49 83° ENE 16:53:01 10° SSE
Cosmos 2219 3.2 16:42:40 10° NNW 16:48:19 80° ENE 16:53:56 10° SSE
CZ-2D R/B 3.9 16:45:37 10° S 16:49:20 60° W 16:53:04 10° NNW
Cosmos 1634 Rocket 4.2 16:45:18 10° S 16:51:34 81° W 16:57:49 10° N
Landsat 4 3.9 16:48:54 10° S 16:52:31 73° WSW 16:56:09 10° NNW
Cosmos 2251 Rocket 4.4 16:48:16 10° SSE 16:52:49 29° E 16:57:24 10° NE
Cosmos 1980 Rocket 2.5 16:50:43 10° S 16:56:05 48° ESE 17:01:31 10° NE
Meteor PRIRODA 3.5 16:53:08 10° SSE 16:56:40 74° ENE 17:00:13 10° N
ARGOS 3.8 16:52:13 10° S 16:57:30 63° W 17:02:50 10° NNW
USA 281 4.4 16:53:03 10° NNE 16:59:05 41° NW 17:05:07 10° WSW
DMSP B5D2-2 4.2 16:55:21 10° NNE 17:00:37 60° E 17:05:48 10° S
COSMO-SKYMED 1 3.1 16:58:19 10° NNE 17:02:25 40° E 17:06:30 10° SSE
Cosmos 1697 Rocket 2.9 16:58:24 10° SSW 17:04:03 77° WNW 17:09:45 10° NNE
CZ-4B R/B 2.9 17:01:39 10° SSE 17:05:53 71° ENE 17:09:55 10° N
Cosmos 2266 Rocket 4.2 17:00:45 10° N 17:06:54 49° ENE 17:12:53 10° SSE
BlueWalker 3 2.0 17:04:40 10° SW 17:08:30 71° SE 17:12:01 12° ENE
NOSS 2-1 (C) 4.3 17:05:04 10° NNW 17:09:07 39° NE 17:14:37 10° ESE
Meteor 1-24 Rocket 4.4 17:04:20 10° SSW 17:10:02 61° WNW 17:15:33 10° N
Lacrosse 5 rocket 3.3 17:08:55 10° NNW 17:10:33 13° N 17:12:13 10° NNE
Timation 2 Rocket 4.4 17:07:14 10° NNW 17:12:58 38° NE 17:18:52 10° ESE
Okean O Rocket 3.1 17:11:28 10° E 17:14:12 16° ENE 17:16:56 10° NNE
ATLAS 5 CENTAUR R/B 3.2 17:12:28 10° W 17:15:26 22° NW 17:18:44 10° NNE
Cosmos 2263 Rocket 2.3 17:10:29 10° NNW 17:15:54 50° ENE 17:21:18 10° SE
NOSS 2-1 (D) 4.2 17:13:19 10° NNW 17:17:26 45° NE 17:23:07 10° ESE
Cosmos 2082 3.7 17:18:42 10° NNW 17:24:21 87° ENE 17:29:58 10° SSE
CZ-4C R/B 3.3 17:20:32 10° NNE 17:24:28 57° E 17:28:11 10° S
CZ-4B DEB 4.2 17:19:42 10° SSE 17:25:03 62° ENE 17:30:27 10° N
SL-08 R/B 4.0 17:20:51 10° N 17:25:42 60° WNW 17:30:34 10° SSW
Cosmos 1544 Rocket 3.4 17:21:47 10° N 17:26:07 79° E 17:30:26 10° SSE
Cosmos 2228 3.6 17:22:47 10° N 17:26:36 31° ENE 17:30:22 10° SE
ATLAS 2AS CENTAUR R/B 3.5 17:23:23 10° NNW 17:29:42 33° NNE 17:34:03 17° E
Cosmos 2279 Rocket 4.5 17:24:24 10° SSW 17:30:31 63° W 17:36:41 10° N
CZ-4B R/B 3.5 17:30:46 10° SE 17:35:41 41° ENE 17:40:43 10° N
ISS -2.6 17:32:49 10° NW 17:35:50 29° N 17:37:02 23° NE
Meteor 2-1 Rocket 4.4 17:31:24 10° N 17:37:05 50° ENE 17:42:35 10° SSE
ATLAS CENTAUR R/B 1.6 17:37:24 10° SSW 17:42:06 65° ESE 17:45:16 20° NE
Cosmos 1867 4.0 17:38:27 10° NW 17:43:53 66° WSW 17:49:15 10° SSE
Cosmos 407 Rocket 3.5 17:40:24 10° S 17:45:28 58° ESE 17:50:15 11° NNE
NOSS 3-4 (A) 4.4 17:39:14 10° NW 17:46:11 64° WSW 17:54:05 10° SSE
NOSS 3-4 (C) 4.4 17:39:20 10° NW 17:46:18 65° WSW 17:54:12 10° SSE
Cosmos 2278 3.7 17:41:31 10° S 17:47:04 60° ESE 17:52:08 13° NNE
Cosmos 1844 Rocket 3.8 17:44:14 10° N 17:48:38 23° NE 17:49:18 23° ENE
MOS 1-B 4.3 17:44:17 10° SSE 17:49:57 59° ENE 17:55:39 10° N
SKYMED 2 4.0 17:46:15 10° N 17:50:34 64° WNW 17:54:51 10° SSW
Tiangong 0.1 17:52:09 10° WSW 17:54:39 21° SSW 17:56:31 13° SSE
SL-4 R/B 2.1 17:53:54 10° W 17:57:19 53° NNW 17:58:33 34° NE
Cosmos 1340 Rocket 2.7 17:54:27 10° SSW 17:58:17 83° W 18:02:12 10° N
Cosmos 1408 2.2 17:55:24 10° S 17:58:47 75° E 18:00:41 24° NNE
Cosmos 1190 Rocket 4.2 17:54:06 10° S 17:59:11 49° ESE 18:02:11 23° NE
USA 290 2.4 17:57:13 10° SSW 18:00:26 69° WNW 18:02:01 27° N
Cosmos 2360 Rocket 3.9 17:57:58 10° SE 17:59:31 15° SE 17:59:31 15° SE
BREEZE-M DEB (TANK) 2.8 18:01:11 10° W 18:04:26 81° N 18:07:22 31° E
PAYLOAD B 4.3 18:01:39 10° SSE 18:07:12 80° WSW 18:12:45 10° NNW
YAOGAN 1 2.5 18:04:04 10° SSE 18:08:23 89° ENE 18:12:43 10° NNW
Cosmos 2322 Rocket 2.8 18:04:36 10° SSE 18:09:28 33° ESE 18:09:28 33° ESE
Cosmos 1655 Rocket 4.4 18:04:37 10° NNW 18:10:50 66° W 18:16:59 10° S
Cosmos 1140 Rocket 3.6 18:05:52 10° SSW 18:11:03 73° WNW 18:16:04 11° NNE
Cosmos 1607 4.0 18:05:20 10° SW 18:11:27 74° NW 18:16:06 19° NNE
NOSS 2-1 (E) 4.1 18:07:11 10° NW 18:11:45 82° SW 18:18:22 10° SSE
SL-08 ROCKET BODY 4.2 18:08:16 10° N 18:14:13 85° E 18:20:04 10° S
CZ-4 R/B 1.3 18:10:48 10° SSE 18:14:54 66° ENE 18:19:01 10° N
Cosmos 724 4.2 18:10:23 10° SSW 18:16:17 84° ESE 18:19:48 27° NE
DMSP B5D1-3 4.4 18:13:15 10° NNE 18:18:22 76° ESE 18:23:28 10° S
Cosmos 1536 Rocket 4.3 18:14:49 10° SSW 18:19:02 51° WNW 18:23:16 10° N
SL-16 R/B 2.2 18:14:09 10° S 18:19:41 58° ESE 18:21:31 39° NE
Gblst 52 Del rocket 4.2 18:16:17 10° SW 18:21:46 59° SE 18:22:59 48° E
Cosmos 1244 Rocket 4.4 18:16:24 10° N 18:22:44 65° E 18:28:58 10° SSE
COSMOS 2455 3.8 18:17:15 10° WSW 18:23:00 45° NW 18:28:06 13° NNE
APEX 4.2 18:18:02 10° SSW 18:24:07 70° ESE 18:26:40 35° NE
In-Cosmos 22 Rocket 4.2 18:22:11 10° S 18:27:51 64° E 18:32:51 14° NNE
Cosmos 1892 2.7 18:25:36 10° SSW 18:29:17 73° W 18:29:27 72° NW
Meteor 2-12 Rocket 4.3 18:25:19 10° N 18:31:25 69° E 18:37:26 10° SSE
Cosmos 2237 4.2 18:28:48 10° S 18:34:24 61° ESE 18:34:57 58° E
Cosmos 1606 Rocket 3.4 18:30:20 10° N 18:34:41 86° W 18:35:44 51° S
IRIDIUM 104 4.2 18:30:31 10° N 18:35:43 66° E 18:36:11 63° ESE
CSL-04 Debris 4.3 18:37:12 54° NE 18:37:12 54° NE 18:41:57 10° N
Cosmos 468 Rocket 4.2 18:33:45 10° NNW 18:37:59 50° NNE 18:37:59 50° NNE
Cosmos 1954 Rocket 3.8 18:34:29 10° SSW 18:39:45 75° ESE 18:40:05 71° ENE
Cosmos 1980 Rocket 3.9 18:35:21 10° WSW 18:40:17 30° NW 18:45:18 10° N
Meteor 1-11 4.3 18:36:38 10° SSW 18:42:27 81° W 18:48:18 10° N
Spot 1 4.2 18:43:11 66° WSW 18:43:11 66° WSW 18:46:49 10° SSW
Lacrosse 5 2.9 18:39:07 10° SSW 18:42:20 33° S 18:42:20 33° S
IRIDIUM 114 4.1 18:39:36 10° N 18:44:52 80° E 18:45:21 72° SE
BlueWalker 3 3.5 18:43:52 10° W 18:46:49 31° NW 18:46:49 31° NW
CSL-04 Rocket 4.3 18:50:17 41° N 18:50:17 41° N 18:53:52 10° N
Okean O Rocket 2.1 18:47:21 22° S 18:50:04 57° WSW 18:54:25 10° NNW
Lacrosse 5 rocket 3.8 18:48:01 10° NNW 18:48:24 12° NNW 18:48:24 12° NNW
Feng Yun 1-1 Rocket 4.4 18:47:19 10° S 18:52:57 71° WSW 18:58:30 10° NNW
IRIDIUM 103 4.2 18:48:46 10° N 18:54:01 85° W 18:54:30 74° SSW
Cosmos 2263 Rocket 4.2 18:55:00 10° NW 18:59:30 26° WSW 19:03:59 10° SSW
Cosmos 1553 Rocket 3.8 18:54:45 10° S 19:00:48 88° W 19:06:58 10° N
Cosmos 1763 Rocket 3.8 19:01:13 10° NNW 19:05:58 64° WNW 19:05:58 64° WNW
ISS -0.5 19:09:29 10° WNW 19:09:56 13° WNW 19:09:56 13° WNW
ATLAS CENTAUR R/B 3.7 19:17:19 10° W 19:21:02 23° NW 19:21:07 23° NW
ATLAS 2AS CENTAUR R/B 2.7 19:14:17 10° NW 19:21:16 74° WSW 19:21:32 73° SW
Cosmos 1844 Rocket 3.8 19:27:29 10° NNW 19:31:01 39° NW 19:31:01 39° NW
Cosmos 2360 Rocket 4.2 19:39:42 10° SW 19:41:22 20° SW 19:41:22 20° SW
Cosmos 2322 Rocket 3.8 19:48:12 10° SW 19:51:22 29° WSW 19:51:22 29° WSW
SL-16 R/B 4.1 19:59:26 10° WSW 20:03:28 26° WNW 20:03:28 26° WNW
